sat.trackr.live / text

‹ back to catalog

STARLINK-34595

NORAD 64749 · 2025-144AB

PAYLOAD ACTIVE UNKNOWN

§ Identity

Operator
Country
US
Launch date
2025-07-02
Launch site
AFETR
Launch vehicle
Mass (kg)
RCS (m²)

Purposes: comms

External: N2YO · Heavens-Above · Gunter

§ Orbital elements

Epoch: 2026-05-25T03:04:03.658368Z

Period
94.10 min
Inclination
53.1574°
Eccentricity
0.0000991
Mean motion
15.30206053 rev/d
Perigee alt
474.5 km
Apogee alt
475.9 km
Semi-major
6,853.3 km
B*
3.6185e-4
RAAN
186.0719°
Arg perigee
84.6362°
Mean anomaly
275.4752°
Rev number
5,141

§ Raw data

STARLINK-345951 64749U 25144AB  26145.12782012  .00010375  00000+0  36185-3 0  99982 64749  53.1574 186.0719 0000991  84.6362 275.4752 15.30206053 51415

JSON: /api/v1/satellites/64749 · /tle

For live sub-satellite position, see the globe view (requires WebGL).

§ Visibility from observer

Set your observer location to see the next 7 days of passes ≥ 10°. The values pass through the URL so the page stays shareable.

No JS? Fill the form by hand. The geolocation button needs JavaScript.